Location: Unspecified
(0.0000°N, 0.0000°E)
Time: 14:46:34
(UTC+00:00)

Courier 1B - Pass Details

Date: 13 February 2026
Orbit: 962 x 1208 km, 28.3° (Epoch: 16 March)

Event Time Altitude Azimuth Distance (km) Brightness Sun altitude
Exits shadow 04:13:54 33° 360° (N) 1,783 8.7 -29.2°
Maximum altitude 04:15:37 37° 28° (NNE) 1,646 8.7 -28.8°
Drops below altitude 10° 04:22:01 10° 93° (E) 2,868 10.9 -27.2°
Sets 04:24:53 0° 101° (ESE) 3,785 11.9 -26.5°
